STARLINK-34439

Last updated on Thu Jul 03 2025 00:02:07 GMT+0000 (Coordinated Universal Time)

1 64458U 25130W 25183.58335648 -.00044612 00000+0 -30178-3 0 9999 2 64458 53.1567 179.7279 0001268 79.9908 61.9014 15.74199006 3508
UTC large
Height (km)
Speed (km/s)
/
Latitude / Longitude
Inclination (degrees)
Orbital Period (minutes)
Azimuth
Elevation
Range (km)
Doppler Factor

Next 0 passes for location: London (51.5072 / 0.1276)

Sorry there are no passes over London.